Strona główna
METAR-TAF:

METAR-TAF

Lotnisko :

Orange Municipal Airport

Orange, Massachusetts, Stany Zjednoczone

Szerokość geograficzna: 42-34-18N, Długość geograficzna: 072-16-39W, wysokość: 169 m

Aktualna obserwacja pogody

Raport powstał 53 minut temu, godzina 08:52 UTC
Cisza
Temperatura -5°C
Wilgotność 86%
Ciśnienie 1020 hPa
Widzialność: 16.1 km
bezchmurnie

METAR: KORE 220852Z AUTO 00000KT 10SM CLR M05/M07 A3012 RMK AO2 SLP206 I1000 I3000 T10501072 51003

czas: 05:45 (09:45 UTC)


TAF: brakujący

Obserwacja i prognoza pogody dla ponad 4000 lotnisk (raport METAR i TAF).

Dostępne stacje oznaczono żółtymi i czerwonymi punktami na mapie.

Najedź kursorem aby zobaczyć nazwę stacji.

Kliknij aby zobaczyć obserwacje i prognozy pogody.

Aby zmienić mapę: kliknij na zielony przycisk z czarnym krzyżykiem, aby powiększyć; na zielony przycisk z myślnikiem, aby pomniejszyć; na zielone strzałki, aby przejść do map sąsiednich.


METAR-TAF: